Washington, IA

11:08 AM CDT on April 27, 2017 (GMT -0500)
Washington Municipal

Weather History for KAWG - March, 2013

Change the Weather History Date:

Sunday, March 17, 2013

  Actual Average Record
Temperature  
Mean Temperature 32 °F -  
Max Temperature 37 °F 46 °F 82 °F (2012)
Min Temperature 26 °F 28 °F 15 °F (2014)
Degree Days  
Heating Degree Days 34    
Moisture  
Dew Point 25 °F    
Average Humidity 77    
Maximum Humidity 93    
Minimum Humidity 65    
Precipitation  
Precipitation 0.00 in - - ()
Sea Level Pressure  
Sea Level Pressure 30.07 in    
Wind  
Wind Speed 14 mph (East)    
Max Wind Speed 20 mph    
Max Gust Speed 22 mph    
Visibility 10 miles    
Events Snow    
Averages and records for this station are not official NWS values.
T = Trace of Precipitation, MM = Missing Value Source: NWS Daily Summary

Daily Weather History Graph

Daily Weather History Graph

Search for Another Location

Airport or City:

Trip Planner

Search our weather history database for the weather conditions in past years. The results will help you decide how hot, cold, wet, or windy it might be!

Date:

Astronomy

Mar. 17, 2013 Rise Set
Actual Time 7:14 AM CDT 7:15 PM CDT
Civil Twilight 6:47 AM CDT 7:43 PM CDT
Nautical Twilight 6:15 AM CDT 8:15 PM CDT
Astronomical Twilight 5:42 AM CDT 8:48 PM CDT
Moon 10:24 AM CDT (3/17) 12:27 AM CDT (3/17)
Length of Visible Light 12h 56m
Length of Day
12h 01m
Waxing Crescent, 31% of the Moon is Illuminated
Mar 17
Waxing Crescent
Mar 19
First Quarter
Mar 27
Full
Apr 2
Last Quarter
Apr 10
New

Hourly Weather History & Observations

Time (CDT) Temp. Windchill Dew Point Humidity Pressure Visibility Wind Dir Wind Speed Gust Speed Precip Events Conditions
12:15 AM 30.2 °F 20.2 °F 24.8 °F 80% 30.16 in 10.0 mi North 12.7 mph - N/A   Scattered Clouds
12:35 AM 30.2 °F 18.9 °F 24.8 °F 80% 30.16 in 10.0 mi North 16.1 mph - N/A   Clear
12:55 AM 30.2 °F 20.2 °F 23.0 °F 75% 30.16 in 10.0 mi North 12.7 mph - N/A   Scattered Clouds
1:15 AM 28.4 °F 17.5 °F 23.0 °F 80% 30.15 in 10.0 mi North 13.8 mph - N/A   Clear
1:35 AM 28.4 °F 17.5 °F 24.8 °F 86% 30.15 in 10.0 mi North 13.8 mph - N/A   Clear
1:55 AM 28.4 °F 16.2 °F 23.0 °F 80% 30.14 in 10.0 mi North 17.3 mph 21.9 mph N/A   Clear
2:15 AM 28.4 °F 17.5 °F 23.0 °F 80% 30.14 in 10.0 mi North 13.8 mph - N/A   Clear
2:35 AM 28.4 °F 17.5 °F 23.0 °F 80% 30.14 in 10.0 mi North 13.8 mph - N/A   Clear
2:55 AM 28.4 °F 18.0 °F 23.0 °F 80% 30.13 in 10.0 mi North 12.7 mph 18.4 mph N/A   Clear
3:15 AM 28.4 °F 18.0 °F 23.0 °F 80% 30.13 in 10.0 mi North 12.7 mph - N/A   Clear
3:35 AM 26.6 °F 15.7 °F 21.2 °F 80% 30.12 in 10.0 mi NNE 12.7 mph - N/A   Clear
3:55 AM 26.6 °F 16.2 °F 21.2 °F 80% 30.12 in 10.0 mi NNE 11.5 mph - N/A   Clear
4:15 AM 26.6 °F 17.5 °F 21.2 °F 80% 30.12 in 10.0 mi NNE 9.2 mph - N/A   Clear
4:35 AM 26.6 °F 15.7 °F 21.2 °F 80% 30.13 in 10.0 mi NNE 12.7 mph - N/A   Clear
4:55 AM 26.6 °F 17.5 °F 21.2 °F 80% 30.14 in 10.0 mi NE 9.2 mph - N/A   Clear
5:15 AM 26.6 °F 17.5 °F 21.2 °F 80% 30.14 in 10.0 mi NE 9.2 mph - N/A   Clear
5:35 AM 26.6 °F 17.5 °F 21.2 °F 80% 30.14 in 10.0 mi NE 9.2 mph - N/A   Clear
5:55 AM 26.6 °F 17.5 °F 21.2 °F 80% 30.15 in 10.0 mi NE 9.2 mph - N/A   Clear
6:15 AM 26.6 °F 18.2 °F 21.2 °F 80% 30.15 in 10.0 mi NE 8.1 mph - N/A   Clear
6:35 AM 26.6 °F 19.1 °F 23.0 °F 86% 30.15 in 10.0 mi NE 6.9 mph - N/A   Clear
6:55 AM 26.6 °F 16.8 °F 21.2 °F 80% 30.15 in 10.0 mi NE 10.4 mph - N/A   Clear
7:15 AM 26.6 °F 17.5 °F 21.2 °F 80% 30.16 in 10.0 mi ENE 9.2 mph - N/A   Clear
7:35 AM 26.6 °F 18.2 °F 21.2 °F 80% 30.16 in 10.0 mi ENE 8.1 mph - N/A   Clear
7:55 AM 26.6 °F 16.8 °F 21.2 °F 80% 30.16 in 10.0 mi ENE 10.4 mph - N/A   Clear
8:15 AM 26.6 °F 16.8 °F 21.2 °F 80% 30.17 in 10.0 mi ENE 10.4 mph - N/A   Clear
8:35 AM 28.4 °F 18.5 °F 23.0 °F 80% 30.17 in 10.0 mi ENE 11.5 mph - N/A   Scattered Clouds
8:55 AM 28.4 °F 17.5 °F 23.0 °F 80% 30.17 in 10.0 mi East 13.8 mph 18.4 mph N/A   Scattered Clouds
9:15 AM 30.2 °F 19.3 °F 23.0 °F 75% 30.17 in 10.0 mi East 15.0 mph 19.6 mph N/A   Scattered Clouds
9:35 AM 30.2 °F 19.3 °F 23.0 °F 75% 30.16 in 10.0 mi East 15.0 mph - N/A   Mostly Cloudy
9:55 AM 30.2 °F 18.9 °F 23.0 °F 75% 30.17 in 10.0 mi East 16.1 mph - N/A   Mostly Cloudy
10:15 AM 32.0 °F 21.6 °F 23.0 °F 69% 30.16 in 10.0 mi East 15.0 mph - N/A   Mostly Cloudy
10:35 AM 32.0 °F 21.6 °F 23.0 °F 69% 30.16 in 10.0 mi ESE 15.0 mph - N/A   Scattered Clouds
10:55 AM 33.8 °F 23.9 °F 24.8 °F 70% 30.15 in 10.0 mi East 15.0 mph 20.7 mph N/A   Clear
11:15 AM 33.8 °F 22.8 °F 24.8 °F 70% 30.15 in 10.0 mi ESE 18.4 mph - N/A   Scattered Clouds
11:35 AM 33.8 °F 24.3 °F 24.8 °F 70% 30.14 in 10.0 mi ESE 13.8 mph 20.7 mph N/A   Scattered Clouds
11:55 AM 33.8 °F 23.9 °F 24.8 °F 70% 30.13 in 10.0 mi East 15.0 mph - N/A   Scattered Clouds
12:15 PM 35.6 °F 25.9 °F 24.8 °F 65% 30.12 in 10.0 mi ESE 16.1 mph - N/A   Scattered Clouds
12:35 PM 35.6 °F 25.9 °F 24.8 °F 65% 30.11 in 10.0 mi ESE 16.1 mph 19.6 mph N/A   Scattered Clouds
12:55 PM 35.6 °F 26.6 °F 24.8 °F 65% 30.09 in 10.0 mi East 13.8 mph - N/A   Scattered Clouds
1:15 PM 35.6 °F 27.1 °F 26.6 °F 70% 30.09 in 10.0 mi ESE 12.7 mph - N/A   Scattered Clouds
1:35 PM 35.6 °F 26.2 °F 26.6 °F 70% 30.09 in 10.0 mi ESE 15.0 mph - N/A   Scattered Clouds
1:55 PM 35.6 °F 26.2 °F 28.4 °F 75% 30.07 in 10.0 mi ESE 15.0 mph 20.7 mph N/A   Mostly Cloudy
2:15 PM 35.6 °F 25.9 °F 26.6 °F 70% 30.05 in 10.0 mi East 16.1 mph 19.6 mph N/A   Mostly Cloudy
2:35 PM 37.4 °F 28.9 °F 28.4 °F 70% 30.04 in 10.0 mi East 13.8 mph 19.6 mph N/A   Mostly Cloudy
2:55 PM 37.4 °F 28.5 °F 28.4 °F 70% 30.03 in 10.0 mi East 15.0 mph - N/A   Mostly Cloudy
3:15 PM 37.4 °F 28.5 °F 28.4 °F 70% 30.01 in 10.0 mi East 15.0 mph - N/A   Mostly Cloudy
3:35 PM 37.4 °F 28.2 °F 28.4 °F 70% 30.01 in 10.0 mi ESE 16.1 mph - N/A   Overcast
3:55 PM 37.4 °F 27.8 °F 28.4 °F 70% 30.01 in 10.0 mi East 17.3 mph - N/A   Mostly Cloudy
4:15 PM 37.4 °F 27.8 °F 28.4 °F 70% 30.00 in 10.0 mi ESE 17.3 mph - N/A   Overcast
4:35 PM 35.6 °F 24.8 °F 28.4 °F 75% 29.99 in 10.0 mi East 19.6 mph - N/A   Overcast
4:55 PM 35.6 °F 25.5 °F 28.4 °F 75% 30.00 in 10.0 mi ESE 17.3 mph - N/A   Overcast
5:15 PM 35.6 °F 25.9 °F 28.4 °F 75% 29.98 in 10.0 mi East 16.1 mph - N/A   Overcast
5:35 PM 35.6 °F 24.8 °F 28.4 °F 75% 29.97 in 10.0 mi ESE 19.6 mph - N/A   Mostly Cloudy
5:55 PM 35.6 °F 25.5 °F 28.4 °F 75% 29.97 in 10.0 mi ESE 17.3 mph - N/A   Scattered Clouds
6:15 PM 35.6 °F 25.5 °F 28.4 °F 75% 29.97 in 10.0 mi East 17.3 mph - N/A   Clear
6:35 PM 33.8 °F 23.5 °F 28.4 °F 81% 29.96 in 10.0 mi ESE 16.1 mph - N/A   Clear
6:55 PM 33.8 °F 23.2 °F 28.4 °F 81% 29.96 in 10.0 mi East 17.3 mph - N/A   Clear
7:15 PM 33.8 °F 24.3 °F 28.4 °F 81% 29.96 in 10.0 mi East 13.8 mph - N/A   Clear
7:35 PM 33.8 °F 24.3 °F 28.4 °F 81% 29.95 in 10.0 mi East 13.8 mph - N/A   Clear
7:55 PM 33.8 °F 23.5 °F 28.4 °F 81% 29.95 in 10.0 mi East 16.1 mph - N/A   Clear
8:15 PM 33.8 °F 24.8 °F 28.4 °F 81% 29.95 in 10.0 mi East 12.7 mph - N/A   Clear
8:35 PM 33.8 °F 23.5 °F 28.4 °F 81% 29.93 in 10.0 mi East 16.1 mph - N/A   Mostly Cloudy
8:55 PM 33.8 °F 24.8 °F 28.4 °F 81% 29.93 in 10.0 mi East 12.7 mph - N/A   Overcast
9:15 PM 33.8 °F 23.9 °F 28.4 °F 81% 29.92 in 10.0 mi East 15.0 mph - N/A   Overcast
9:35 PM 33.8 °F 23.5 °F 28.4 °F 81% 29.92 in 10.0 mi East 16.1 mph - N/A   Overcast
9:55 PM 33.8 °F 23.5 °F 28.4 °F 81% 29.92 in 10.0 mi East 16.1 mph - N/A   Overcast
10:15 PM 33.8 °F 23.2 °F 28.4 °F 81% 29.92 in 10.0 mi East 17.3 mph - N/A   Overcast
10:35 PM 33.8 °F 22.8 °F 28.4 °F 81% 29.91 in 10.0 mi East 18.4 mph - N/A   Overcast
10:55 PM 33.8 °F 22.8 °F 28.4 °F 81% 29.91 in 10.0 mi East 18.4 mph - N/A   Overcast
11:15 PM 33.8 °F 24.3 °F 28.4 °F 81% 29.91 in 10.0 mi East 13.8 mph 20.7 mph N/A   Overcast
11:35 PM 33.8 °F 23.5 °F 28.4 °F 81% 29.89 in 5.0 mi East 16.1 mph - N/A Snow Light Snow
11:55 PM 32.0 °F 21.6 °F 30.2 °F 93% 29.88 in 3.0 mi East 15.0 mph - N/A Snow Light Snow